Hourly Data Report for June 21, 2012

All times are specified in Local Standard Time (LST). Add 1 hour to adjust for Daylight Saving Time where and when it is observed.

ABBOTSFORD A
BRITISH COLUMBIA

49°01'31.000" N
122°21'36.000" W
59.10 m
1100031
71108
YXX

Download Data

Hourly Data (June 2012)
Hourly Data Report for June 21, 2012
Temp Definition
°C
Dew Point Temp Definition
°C
Rel Hum Definition
%
Wind Dir Definition
10's deg

Wind Spd Definition
km/h
Visibility Definition
km
Stn Press Definition
kPa
Hmdx Definition


Wind Chill Definition


Weather Definition


TIME
00:00 14.2 11.4 83   0 10.0 100.71     LegendNANA
01:00 14.4 10.8 79   0 10.0 100.70     Mostly Cloudy
02:00 13.6 11.5 87 33 4 10.0 100.68     LegendNANA
03:00 13.0 11.1 88 10 5 10.0 100.63     LegendNANA
04:00 13.0 10.9 87   0 10.0 100.62     Mostly Cloudy
05:00 13.4 11.5 88   0 10.0 100.65     LegendNANA
06:00 13.9 11.8 87 20 5 10.0 100.67     LegendNANA
07:00 15.2 11.4 78   0 10.0 100.64     Mostly Cloudy
08:00 16.9 12.7 76   0 10.0 100.60     LegendNANA
09:00 18.5 12.3 67   0 10.0 100.55     LegendNANA
10:00 20.0 13.3 65   0 10.0 100.50     Cloudy
11:00 21.2 13.5 61   0 10.0 100.44     LegendNANA
12:00 22.4 14.4 60 23 7 10.0 100.40 26   LegendNANA
13:00 22.7 14.4 59 20 13 10.0 100.33 26   Cloudy
14:00 22.8 14.8 60 21 11 10.0 100.24 27   LegendNANA
15:00 23.0 15.7 63 23 16 10.0 100.20 27   LegendNANA
16:00 22.0 13.5 58 23 20 10.0 100.20 25   Mostly Cloudy
17:00 20.5 12.3 59 22 15 10.0 100.16     LegendNANA
18:00 19.8 11.7 59 22 12 10.0 100.11     LegendNANA
19:00 18.8 12.4 66 20 12 10.0 100.09     Cloudy
20:00 17.1 12.3 73 23 8 10.0 100.06     LegendNANA
21:00 15.9 12.1 78 23 12 10.0 100.08     LegendNANA
22:00 15.2 11.8 80 23 8 10.0 100.07     Cloudy
23:00 14.5 11.1 80   0 10.0 100.02     LegendNANA

Notes on Data Quality.

Legend

  • E = Estimated
  • M = Missing
  • NA = Not Available
Date modified: